TIANMU-1 09

Last updated on Sun Apr 12 2026 00:02:27 GMT+0000 (Coordinated Universal Time)

1 57401U 23101C 26101.51466109 .00005182 00000+0 18430-3 0 9990 2 57401 97.2611 152.9557 0004161 60.6829 299.4827 15.29408812151459
UTC large
Height (km)
Speed (km/s)
/
Latitude / Longitude
Inclination (degrees)
Orbital Period (minutes)
Azimuth
Elevation
Range (km)
Doppler Factor

Next 0 passes for location: London (51.5072 / 0.1276)

Sorry there are no passes over London.
TIANMU-1 09